When you browse on this site, cookies collect data to enhance your experience and personalize the content and advertising you see.
Visit our Privacy Policy to learn more. By continuing to use the site, you agree to this use of cookies and data.
  • In Germany
  • List of Countries
  • For 7 days
  • Water Temperature
  • Satellite Maps
  • Weather Map
  • Weather Widgets
  • user-avatar
    Login

    Hourly Weather Yelsk

    Today, 22 May, Wednesday

    Time Temperature Precipitation Wind Pressure Humidity
    00:00 +14°C° 0 mm 2 mps 742 mmHg 95%
    01:00 +13°C° 0 mm 2 mps 742 mmHg 95%
    02:00 +13°C° 0 mm 2 mps 742 mmHg 95%
    03:00 +13°C° 0 mm 1 mps 742 mmHg 95%
    04:00 +13°C° 0 mm 1 mps 742 mmHg 95%
    05:00 +12°C° 0 mm 1 mps 742 mmHg 96%
    06:00 +14°C° 0 mm 1 mps 742 mmHg 88%
    07:00 +16°C° 0 mm 1 mps 742 mmHg 81%
    08:00 +19°C° 0 mm 1 mps 742 mmHg 74%
    09:00 +21°C° 0 mm 1 mps 742 mmHg 65%
    10:00 +22°C° 0 mm 1 mps 742 mmHg 56%
    11:00 +24°C° 0 mm 2 mps 742 mmHg 47%
    12:00 +24°C° 0 mm 2 mps 742 mmHg 45%
    13:00 +25°C° 0 mm 2 mps 742 mmHg 44%
    14:00 +25°C° 0 mm 2 mps 741 mmHg 42%
    15:00 +25°C° 0 mm 2 mps 741 mmHg 44%
    16:00 +25°C° 0 mm 1 mps 741 mmHg 47%
    17:00 +24°C° 0 mm 1 mps 741 mmHg 49%
    18:00 +21°C° 0.1 mm 2 mps 741 mmHg 58%
    19:00 +19°C° 0.1 mm 2 mps 741 mmHg 67%
    20:00 +17°C° 0.1 mm 2 mps 741 mmHg 76%
    21:00 +17°C° 0 mm 2 mps 741 mmHg 78%
    22:00 +16°C° 0 mm 1 mps 741 mmHg 81%
    23:00 +15°C° 0 mm 1 mps 741 mmHg 83%

    Tomorrow, 23 May, Thursday

    Time Temperature Precipitation Wind Pressure Humidity
    00:00 +15°C° 0 mm 1 mps 741 mmHg 84%
    01:00 +14°C° 0 mm 1 mps 741 mmHg 86%
    02:00 +14°C° 0 mm 1 mps 741 mmHg 87%
    03:00 +14°C° 0 mm 1 mps 741 mmHg 87%
    04:00 +14°C° 0 mm 1 mps 741 mmHg 87%
    05:00 +14°C° 0 mm 1 mps 741 mmHg 87%
    06:00 +16°C° 0 mm 1 mps 741 mmHg 80%
    07:00 +19°C° 0 mm 1 mps 741 mmHg 74%
    08:00 +20°C° 0 mm 1 mps 741 mmHg 67%
    09:00 +22°C° 0 mm 1 mps 741 mmHg 60%
    10:00 +23°C° 0 mm 0 mps 741 mmHg 53%
    11:00 +25°C° 0 mm 0 mps 741 mmHg 46%
    12:00 +25°C° 0 mm 0 mps 741 mmHg 43%
    13:00 +27°C° 0 mm 1 mps 741 mmHg 41%
    14:00 +27°C° 0 mm 1 mps 741 mmHg 38%
    15:00 +27°C° 0 mm 1 mps 741 mmHg 42%
    16:00 +26°C° 0 mm 1 mps 741 mmHg 45%
    17:00 +25°C° 0 mm 1 mps 740 mmHg 48%
    18:00 +24°C° 0 mm 1 mps 741 mmHg 54%
    19:00 +22°C° 0 mm 1 mps 741 mmHg 61%
    20:00 +20°C° 0 mm 1 mps 741 mmHg 67%
    21:00 +19°C° 0 mm 1 mps 741 mmHg 71%
    22:00 +18°C° 0 mm 1 mps 741 mmHg 76%
    23:00 +16°C° 0 mm 1 mps 741 mmHg 80%

    Day after tomorrow, 24 May, Friday

    Time Temperature Precipitation Wind Pressure Humidity
    00:00 +16°C° 0 mm 1 mps 741 mmHg 81%
    01:00 +15°C° 0 mm 1 mps 741 mmHg 83%
    02:00 +15°C° 0 mm 1 mps 741 mmHg 84%
    03:00 +15°C° 0 mm 1 mps 741 mmHg 84%
    04:00 +15°C° 0 mm 1 mps 741 mmHg 84%
    05:00 +14°C° 0 mm 0 mps 741 mmHg 84%
    06:00 +16°C° 0 mm 0 mps 742 mmHg 77%
    07:00 +19°C° 0 mm 0 mps 742 mmHg 69%
    08:00 +21°C° 0 mm 0 mps 742 mmHg 61%
    09:00 +24°C° 0.3 mm 1 mps 742 mmHg 58%
    10:00 +25°C° 0.3 mm 1 mps 742 mmHg 55%
    11:00 +26°C° 0.3 mm 2 mps 742 mmHg 51%
    12:00 +26°C° 0.1 mm 2 mps 741 mmHg 49%
    13:00 +26°C° 0.1 mm 1 mps 741 mmHg 48%
    14:00 +27°C° 0.1 mm 1 mps 741 mmHg 46%
    15:00 +27°C° 0.1 mm 1 mps 741 mmHg 48%
    16:00 +26°C° 0.1 mm 1 mps 741 mmHg 51%
    17:00 +26°C° 0.1 mm 1 mps 740 mmHg 54%
    18:00 +24°C° 1 mm 1 mps 740 mmHg 64%
    19:00 +21°C° 1 mm 1 mps 741 mmHg 75%
    20:00 +19°C° 1 mm 1 mps 741 mmHg 86%
    21:00 +18°C° 0 mm 2 mps 740 mmHg 88%
    22:00 +17°C° 0 mm 2 mps 740 mmHg 91%
    23:00 +16°C° 0 mm 2 mps 740 mmHg 93%

    25 May, Saturday

    Time Temperature Precipitation Wind Pressure Humidity
    00:00 +16°C° 0.3 mm 2 mps 740 mmHg 95%
    01:00 +15°C° 0.3 mm 2 mps 740 mmHg 96%
    02:00 +15°C° 0.3 mm 2 mps 740 mmHg 98%
    03:00 +15°C° 0.2 mm 2 mps 740 mmHg 98%
    04:00 +14°C° 0.2 mm 2 mps 740 mmHg 97%
    05:00 +13°C° 0.2 mm 3 mps 740 mmHg 97%
    06:00 +14°C° 0 mm 3 mps 740 mmHg 94%
    07:00 +16°C° 0 mm 3 mps 740 mmHg 92%
    08:00 +17°C° 0 mm 4 mps 740 mmHg 89%
    09:00 +17°C° 0 mm 4 mps 740 mmHg 84%
    10:00 +18°C° 0 mm 4 mps 740 mmHg 79%
    11:00 +19°C° 0 mm 5 mps 741 mmHg 74%
    12:00 +20°C° 0 mm 5 mps 740 mmHg 64%
    13:00 +21°C° 0 mm 5 mps 740 mmHg 54%
    14:00 +23°C° 0 mm 5 mps 740 mmHg 44%
    15:00 +22°C° 0 mm 4 mps 740 mmHg 44%
    16:00 +22°C° 0 mm 4 mps 740 mmHg 44%
    17:00 +22°C° 0 mm 4 mps 740 mmHg 43%
    18:00 +20°C° 0 mm 3 mps 740 mmHg 52%
    19:00 +18°C° 0 mm 3 mps 740 mmHg 61%
    20:00 +16°C° 0 mm 2 mps 740 mmHg 70%
    21:00 +16°C° 0 mm 2 mps 740 mmHg 77%
    22:00 +15°C° 0 mm 2 mps 740 mmHg 83%
    23:00 +14°C° 0 mm 2 mps 741 mmHg 90%

    26 May, Sunday

    Time Temperature Precipitation Wind Pressure Humidity
    00:00 +13°C° 0 mm 3 mps 741 mmHg 91%
    01:00 +12°C° 0 mm 3 mps 741 mmHg 92%
    02:00 +12°C° 0 mm 3 mps 741 mmHg 93%
    03:00 +12°C° 0 mm 3 mps 741 mmHg 94%
    04:00 +11°C° 0 mm 3 mps 741 mmHg 95%
    05:00 +11°C° 0 mm 3 mps 742 mmHg 96%
    06:00 +12°C° 0 mm 3 mps 742 mmHg 88%
    07:00 +13°C° 0 mm 3 mps 742 mmHg 80%
    08:00 +14°C° 0 mm 4 mps 742 mmHg 72%
    09:00 +15°C° 0 mm 4 mps 742 mmHg 67%
    10:00 +17°C° 0 mm 4 mps 742 mmHg 62%
    11:00 +17°C° 0 mm 4 mps 742 mmHg 57%
    12:00 +18°C° 0 mm 4 mps 741 mmHg 56%
    13:00 +18°C° 0 mm 4 mps 741 mmHg 55%
    14:00 +19°C° 0 mm 4 mps 741 mmHg 54%
    15:00 +19°C° 0 mm 4 mps 741 mmHg 54%
    16:00 +19°C° 0 mm 4 mps 741 mmHg 54%
    17:00 +19°C° 0 mm 4 mps 740 mmHg 54%
    18:00 +17°C° 0 mm 4 mps 740 mmHg 61%
    19:00 +16°C° 0 mm 3 mps 740 mmHg 67%
    20:00 +14°C° 0 mm 2 mps 740 mmHg 74%
    21:00 +14°C° 0 mm 2 mps 740 mmHg 77%
    22:00 +13°C° 0 mm 2 mps 741 mmHg 81%
    23:00 +11°C° 0 mm 3 mps 741 mmHg 85%

    27 May, Monday

    Time Temperature Precipitation Wind Pressure Humidity
    00:00 +11°C° 0 mm 3 mps 741 mmHg 84%
    01:00 +10°C° 0 mm 3 mps 741 mmHg 83%
    02:00 +10°C° 0 mm 3 mps 741 mmHg 82%
    03:00 +10°C° 0 mm 4 mps 741 mmHg 82%
    04:00 +10°C° 0 mm 4 mps 742 mmHg 82%
    05:00 +10°C° 0 mm 4 mps 742 mmHg 83%
    06:00 +10°C° 0.1 mm 5 mps 742 mmHg 76%
    07:00 +12°C° 0.1 mm 5 mps 742 mmHg 70%
    08:00 +13°C° 0.1 mm 6 mps 742 mmHg 63%
    09:00 +14°C° 0 mm 6 mps 743 mmHg 58%
    10:00 +15°C° 0 mm 6 mps 743 mmHg 53%
    11:00 +16°C° 0 mm 6 mps 743 mmHg 48%
    12:00 +17°C° 0 mm 6 mps 743 mmHg 47%
    13:00 +19°C° 0 mm 6 mps 743 mmHg 46%
    14:00 +20°C° 0 mm 6 mps 743 mmHg 45%
    15:00 +20°C° 0 mm 5 mps 743 mmHg 47%
    16:00 +20°C° 0 mm 5 mps 743 mmHg 48%
    17:00 +20°C° 0 mm 4 mps 743 mmHg 50%
    18:00 +18°C° 0 mm 3 mps 744 mmHg 58%
    19:00 +17°C° 0 mm 2 mps 744 mmHg 65%
    20:00 +15°C° 0 mm 1 mps 744 mmHg 73%
    21:00 +14°C° 0 mm 2 mps 744 mmHg 78%
    22:00 +14°C° 0 mm 2 mps 744 mmHg 83%
    23:00 +13°C° 0 mm 2 mps 744 mmHg 88%
    Show more